IQ1GE Weather Reports


Display with metric or nautical units.
time (UTC)temp
F
wind
direction
speed
MPH
gust
MPH
rain 1hr
in
rain 24hr
in
rain mn
in
humidity
%
barometer
mb
20260903013426 75 68 0.0 0.0 0.00 0.00 0.00 82 1019.7
20260903012929 75 68 0.0 0.0 0.00 0.00 0.00 83 1019.7
20260903012426 75 89 0.0 0.0 0.00 0.00 0.00 84 1019.7
20260903011926 75 83 0.0 0.0 0.00 0.00 0.00 84 1019.6
20260903011429 75 87 0.0 0.0 0.00 0.00 0.00 85 1019.7
20260903010926 75 68 0.0 0.0 0.00 0.00 0.00 84 1019.7
20260903010426 75 102 0.0 0.0 0.00 0.00 0.00 84 1019.7
20260903005929 75 103 0.0 0.0 0.00 0.00 0.00 84 1019.6
20260903005426 75 60 0.0 0.0 0.00 0.00 0.00 84 1019.6
20260903004932 75 354 0.0 0.0 0.00 0.00 0.00 84 1019.7
20260903004426 75 85 0.0 0.0 0.00 0.00 0.00 84 1019.7
20260903003926 75 86 0.0 0.0 0.00 0.00 0.00 84 1019.7
20260903003429 75 119 0.0 0.0 0.00 0.00 0.00 85 1019.7
20260903002932 75 102 0.0 0.0 0.00 0.00 0.00 85 1019.7
20260903002426 76 122 0.0 0.0 0.00 0.00 0.00 84 1019.8
20260903001926 76 72 0.0 0.0 0.00 0.00 0.00 85 1019.9
20260903001429 76 52 0.0 0.0 0.00 0.00 0.00 85 1019.9
20260903000932 76 116 0.0 0.0 0.00 0.00 0.00 84 1019.9
20260903000429 76 119 0.0 0.0 0.00 0.00 0.00 85 1019.9
20260902235929 76 27 0.0 0.0 0.00 0.00 0.00 84 1019.8
20260902235432 76 99 0.0 0.0 0.00 0.00 0.00 84 1019.8
20260902234926 76 71 0.0 0.0 0.00 0.00 0.00 84 1019.9
20260902234429 76 100 0.0 0.0 0.00 0.00 0.00 84 1019.9
20260902233926 77 77 0.0 0.0 0.00 0.00 0.00 85 1020.0
20260902233429 77 106 0.0 0.0 0.00 0.00 0.00 85 1020.0
20260902232926 77 91 0.0 0.0 0.00 0.00 0.00 85 1020.0
20260902232426 77 96 0.0 0.0 0.00 0.00 0.00 85 1019.8
20260902231929 77 95 0.0 0.0 0.00 0.00 0.00 85 1019.8
20260902231429 77 74 0.0 0.0 0.00 0.00 0.00 85 1019.8
20260902230926 77 112 0.0 0.0 0.00 0.00 0.00 85 1019.8
20260902230429 77 85 0.0 0.0 0.00 0.00 0.00 85 1019.8
20260902225926 77 120 0.0 0.0 0.00 0.00 0.00 85 1019.8
20260902225426 77 93 0.0 0.0 0.00 0.00 0.00 85 1019.8
20260902224932 77 49 0.0 0.0 0.00 0.00 0.00 85 1019.8
20260902224426 77 87 0.0 0.0 0.00 0.00 0.00 85 1019.7
20260902223935 77 79 0.0 0.0 0.00 0.00 0.00 85 1019.8
20260902223426 77 125 0.0 0.0 0.00 0.00 0.00 85 1019.7
20260902222926 77 45 0.0 0.0 0.00 0.00 0.00 85 1019.7
20260902222429 77 87 0.0 0.0 0.00 0.00 0.00 85 1019.7
20260902221929 77 98 0.0 0.0 0.00 0.00 0.00 85 1019.8
20260902221432 77 91 0.0 0.0 0.00 0.00 0.00 85 1019.8
20260902220926 78 110 0.0 0.0 0.00 0.00 0.00 85 1019.8
20260902220426 78 91 0.0 0.0 0.00 0.00 0.00 84 1019.8
20260902215926 78 100 0.0 0.0 0.00 0.00 0.00 84 1019.8
20260902215429 78 106 0.0 0.0 0.00 0.00 0.00 84 1019.9
20260902214926 78 100 0.0 0.0 0.00 0.00 0.00 84 1019.8
20260902214429 78 84 0.0 0.0 0.00 0.00 0.00 84 1019.8
20260902213932 78 100 0.0 0.0 0.00 0.00 0.00 84 1019.7
20260902213426 78 105 0.0 0.0 0.00 0.00 0.00 84 1019.7
20260902212926 78 102 0.0 0.0 0.00 0.00 0.00 83 1019.7
20260902212429 79 110 0.0 0.0 0.00 0.00 0.00 83 1019.7
20260902211929 79 359 0.0 0.0 0.00 0.00 0.00 83 1019.7
20260902211426 79 359 0.0 0.0 0.00 0.00 0.00 83 1019.7
20260902210926 79 359 0.0 0.0 0.00 0.00 0.00 82 1019.7
20260902210429 79 226 0.0 0.0 0.00 0.00 0.00 82 1019.7
20260902205926 79 226 0.0 0.0 0.00 0.00 0.00 82 1019.7
20260902205432 79 226 0.0 0.0 0.00 0.00 0.00 82 1019.7
20260902204926 79 225 0.0 0.0 0.00 0.00 0.00 82 1019.6
20260902204429 79 225 0.0 0.0 0.00 0.00 0.00 82 1019.6
20260902203932 79 225 0.0 0.0 0.00 0.00 0.00 82 1019.5
20260902203429 79 225 0.0 0.0 0.00 0.00 0.00 82 1019.5
20260902202926 79 224 0.0 0.0 0.00 0.00 0.00 82 1019.6
20260902202426 79 224 0.0 0.0 0.00 0.00 0.00 82 1019.6
20260902201929 79 224 0.0 0.0 0.00 0.00 0.00 81 1019.6
20260902201426 80 225 0.0 0.0 0.00 0.00 0.00 81 1019.6
20260902200926 80 222 0.0 0.0 0.00 0.00 0.00 81 1019.5
20260902200432 80 222 0.0 0.0 0.00 0.00 0.00 81 1019.5
20260902195932 80 228 0.0 0.0 0.00 0.00 0.00 81 1019.5
20260902195426 80 229 0.0 0.0 0.00 0.00 0.00 81 1019.5
20260902194929 79 227 0.0 0.0 0.00 0.00 0.00 82 1019.5
20260902194435 79 224 0.0 0.0 0.00 0.00 0.00 81 1019.5
20260902193927 80 233 0.0 0.0 0.00 0.00 0.00 81 1019.4
20260902193427 79 230 0.0 0.0 0.00 0.00 0.00 81 1019.4
20260902192926 79 228 0.0 0.0 0.00 0.00 0.00 81 1019.4
20260902192429 79 228 0.0 0.0 0.00 0.00 0.00 81 1019.4
20260902191927 79 229 0.0 0.0 0.00 0.00 0.00 81 1019.4
20260902191435 80 230 0.0 0.0 0.00 0.00 0.00 81 1019.3
20260902190926 80 230 0.0 0.0 0.00 0.00 0.00 81 1019.4
20260902190430 80 230 0.0 0.0 0.00 0.00 0.00 81 1019.4
20260902185927 80 229 0.0 0.0 0.00 0.00 0.00 81 1019.4
20260902185436 80 228 0.0 0.0 0.00 0.00 0.00 81 1019.3
20260902184930 80 228 0.0 0.0 0.00 0.00 0.00 81 1019.3
20260902184427 80 228 0.0 0.0 0.00 0.00 0.00 81 1019.2
20260902183927 80 228 0.0 0.0 0.00 0.00 0.00 81 1019.2
20260902183427 80 228 0.0 0.0 0.00 0.00 0.00 81 1019.2
20260902182927 80 228 0.0 0.0 0.00 0.00 0.00 81 1019.1
20260902182433 80 223 0.0 0.0 0.00 0.00 0.00 81 1019.1
20260902181933 80 223 0.0 0.0 0.00 0.00 0.00 81 1019.0
20260902181427 80 224 0.0 0.0 0.00 0.00 0.00 80 1019.1
20260902180930 80 237 0.0 0.0 0.00 0.00 0.00 80 1019.0
20260902180427 80 206 0.0 0.0 0.00 0.00 0.00 80 1019.0
20260902175927 80 220 0.0 0.0 0.00 0.00 0.00 80 1019.0
20260902175427 80 211 0.0 0.0 0.00 0.00 0.00 80 1019.0
20260902174930 80 226 0.0 0.0 0.00 0.00 0.00 80 1019.0
20260902174427 80 224 0.0 0.0 0.00 0.00 0.00 80 1018.9
20260902173927 80 239 0.0 0.0 0.00 0.00 0.00 79 1018.9
20260902173433 80 218 0.0 0.0 0.00 0.00 0.00 79 1018.9
20260902172927 81 196 0.0 0.0 0.00 0.00 0.00 79 1018.8
20260902172427 81 242 0.0 0.0 0.00 0.00 0.00 78 1018.8
20260902171933 81 170 0.0 0.0 0.00 0.00 0.00 78 1018.8
20260902171433 81 218 0.0 0.0 0.00 0.00 0.00 77 1018.8
20260902170927 81 219 0.0 0.0 0.00 0.00 0.00 77 1018.8
20260902170427 81 213 0.0 0.0 0.00 0.00 0.00 77 1018.8
20260902165927 81 247 0.0 0.0 0.00 0.00 0.00 77 1018.8
20260902165427 82 261 0.0 0.0 0.00 0.00 0.00 76 1018.7
20260902164933 82 203 0.0 0.0 0.00 0.00 0.00 76 1018.7
20260902164433 82 234 0.0 0.0 0.00 0.00 0.00 76 1018.8
20260902163927 82 171 0.0 0.0 0.00 0.00 0.00 76 1018.8
20260902163427 82 219 0.0 0.0 0.00 0.00 0.00 76 1018.8
20260902162930 82 199 0.0 0.0 0.00 0.00 0.00 76 1018.9
20260902162433 82 222 0.0 0.0 0.00 0.00 0.00 75 1018.9
20260902161936 82 220 0.0 0.0 0.00 0.00 0.00 75 1018.9
20260902161430 82 204 0.0 0.0 0.00 0.00 0.00 75 1019.0
20260902160927 82 187 0.0 0.0 0.00 0.00 0.00 76 1019.0
20260902160430 82 212 0.0 0.0 0.00 0.00 0.00 75 1019.0
20260902155927 82 232 0.0 0.0 0.00 0.00 0.00 75 1019.0
20260902155430 82 204 0.0 0.0 0.00 0.00 0.00 75 1019.1
20260902154930 82 187 0.0 0.0 0.00 0.00 0.00 75 1019.0
20260902154427 82 226 0.0 0.0 0.00 0.00 0.00 75 1019.0
20260902153927 82 197 0.0 0.0 0.00 0.00 0.00 75 1019.1
20260902153427 83 241 0.0 0.0 0.00 0.00 0.00 74 1019.1
20260902152930 83 234 0.0 0.0 0.00 0.00 0.00 75 1019.0
20260902152433 83 232 0.0 0.0 0.00 0.00 0.00 74 1019.1
20260902151927 83 226 0.0 0.0 0.00 0.00 0.00 74 1019.2
20260902151430 83 199 0.0 0.0 0.00 0.00 0.00 74 1019.2
20260902150933 83 206 0.0 0.0 0.00 0.00 0.00 75 1019.2
20260902150436 83 238 0.0 0.0 0.00 0.00 0.00 75 1019.2
20260902145933 82 221 0.0 0.0 0.00 0.00 0.00 77 1019.2
20260902145427 82 172 0.0 0.0 0.00 0.00 0.00 77 1019.2
20260902144930 82 224 0.0 0.0 0.00 0.00 0.00 76 1019.2
20260902144427 82 189 0.0 0.0 0.00 0.00 0.00 76 1019.2
20260902143927 82 232 0.0 0.0 0.00 0.00 0.00 75 1019.2
20260902143430 83 200 0.0 0.0 0.00 0.00 0.00 75 1019.2
20260902142927 83 327 0.0 0.0 0.00 0.00 0.00 75 1019.2
20260902142427 83 222 0.0 0.0 0.00 0.00 0.00 74 1019.3
20260902141930 83 224 0.0 0.0 0.00 0.00 0.00 74 1019.3
20260902141427 83 245 0.0 0.0 0.00 0.00 0.00 75 1019.4
20260902140927 83 230 0.0 0.0 0.00 0.00 0.00 75 1019.4
20260902140430 83 212 0.0 0.0 0.00 0.00 0.00 75 1019.5
20260902135933 83 220 0.0 0.0 0.00 0.00 0.00 75 1019.5
20260902135430 83 202 0.0 0.0 0.00 0.00 0.00 75 1019.6
20260902134933 83 237 0.0 0.0 0.00 0.00 0.00 75 1019.6
20260902134430 83 207 0.0 0.0 0.00 0.00 0.00 74 1019.7
20260902133933 83 224 0.0 0.0 0.00 0.00 0.00 74 1019.7
20260902133427 83 237 0.0 0.0 0.00 0.00 0.00 75 1019.8
20260902132927 83 210 0.0 0.0 0.00 0.00 0.00 75 1019.7
20260902132430 83 223 0.0 0.0 0.00 0.00 0.00 74 1019.7
20260902131936 83 208 0.0 0.0 0.00 0.00 0.00 74 1019.7
20260902131427 83 193 0.0 0.0 0.00 0.00 0.00 75 1019.8
20260902130927 84 189 0.0 0.0 0.00 0.00 0.00 74 1019.9
20260902130433 83 228 0.0 0.0 0.00 0.00 0.00 74 1019.8
20260902125936 83 199 0.0 0.0 0.00 0.00 0.00 74 1019.9
20260902125427 83 239 0.0 0.0 0.00 0.00 0.00 74 1019.9
20260902124930 83 201 0.0 0.0 0.00 0.00 0.00 74 1019.9
20260902124433 83 232 0.0 0.0 0.00 0.00 0.00 75 1019.9
20260902123936 83 220 0.0 0.0 0.00 0.00 0.00 75 1019.9
20260902123427 83 214 0.0 0.0 0.00 0.00 0.00 76 1020.0
20260902122927 83 169 0.0 0.0 0.00 0.00 0.00 76 1020.0
20260902122433 82 224 0.0 0.0 0.00 0.00 0.00 77 1020.1
20260902121936 82 176 0.0 0.0 0.00 0.00 0.00 77 1020.1
20260902121427 82 166 0.0 0.0 0.00 0.00 0.00 77 1020.2
20260902120927 82 233 0.0 0.0 0.00 0.00 0.00 76 1020.3
20260902120430 82 191 0.0 0.0 0.00 0.00 0.00 77 1020.3
20260902115933 82 212 0.0 0.0 0.00 0.00 0.00 78 1020.3
20260902115436 82 226 0.0 0.0 0.00 0.00 0.00 78 1020.4
20260902114927 82 218 0.0 0.0 0.00 0.00 0.00 77 1020.4
20260902114427 83 222 0.0 0.0 0.00 0.00 0.00 76 1020.4
20260902113927 82 205 0.0 0.0 0.00 0.00 0.00 77 1020.4
20260902113430 82 187 0.0 0.0 0.00 0.00 0.00 76 1020.5
20260902112936 83 196 0.0 0.0 0.00 0.00 0.00 77 1020.4
20260902112427 82 157 0.0 0.0 0.00 0.00 0.00 76 1020.5
20260902111927 82 203 0.0 0.0 0.00 0.00 0.00 77 1020.4
20260902111430 82 224 0.0 0.0 0.00 0.00 0.00 78 1020.5
20260902110933 82 195 0.0 0.0 0.00 0.00 0.00 78 1020.6
20260902110436 82 216 0.0 0.0 0.00 0.00 0.00 78 1020.6
20260902105927 82 219 0.0 0.0 0.00 0.00 0.00 78 1020.6
20260902105427 82 195 0.0 0.0 0.00 0.00 0.00 77 1020.6
20260902104927 82 195 0.0 0.0 0.00 0.00 0.00 77 1020.7
20260902104430 82 237 0.0 0.0 0.00 0.00 0.00 77 1020.7
20260902103927 82 168 0.0 0.0 0.00 0.00 0.00 77 1020.7
20260902103433 82 202 0.0 0.0 0.00 0.00 0.00 77 1020.7
20260902102927 82 210 0.0 0.0 0.00 0.00 0.00 77 1020.7
20260902102433 82 197 0.0 0.0 0.00 0.00 0.00 77 1020.8
20260902101936 82 206 0.0 0.0 0.00 0.00 0.00 77 1020.9
20260902101427 82 199 0.0 0.0 0.00 0.00 0.00 76 1020.8
20260902100930 82 237 0.0 0.0 0.00 0.00 0.00 76 1020.9
20260902100436 82 169 0.0 0.0 0.00 0.00 0.00 76 1020.8
20260902095927 82 179 0.0 0.0 0.00 0.00 0.00 76 1020.8
20260902095427 83 199 0.0 0.0 0.00 0.00 0.00 75 1020.8
20260902094927 83 246 0.0 0.0 0.00 0.00 0.00 75 1020.8
20260902094427 83 226 0.0 0.0 0.00 0.00 0.00 75 1020.8
20260902093927 82 226 0.0 0.0 0.00 0.00 0.00 74 1020.7
20260902093430 82 245 0.0 0.0 0.00 0.00 0.00 74 1020.7
20260902092933 82 204 0.0 0.0 0.00 0.00 0.00 75 1020.7
20260902092436 82 256 0.0 0.0 0.00 0.00 0.00 75 1020.7
20260902091927 82 196 0.0 0.0 0.00 0.00 0.00 75 1020.6
20260902091427 82 177 0.0 0.0 0.00 0.00 0.00 75 1020.7
20260902090927 82 199 0.0 0.0 0.00 0.00 0.00 75 1020.7
20260902090430 82 189 0.0 0.0 0.00 0.00 0.00 75 1020.7
20260902085927 82 192 0.0 0.0 0.00 0.00 0.00 75 1020.6
20260902085427 82 195 0.0 0.0 0.00 0.00 0.00 74 1020.6
20260902084930 82 196 0.0 0.0 0.00 0.00 0.00 73 1020.6
20260902084427 82 187 0.0 0.0 0.00 0.00 0.00 73 1020.6
20260902083930 82 241 0.0 0.0 0.00 0.00 0.00 73 1020.5
20260902083433 82 222 0.0 0.0 0.00 0.00 0.00 72 1020.4
20260902082927 82 201 0.0 0.0 0.00 0.00 0.00 73 1020.4
20260902082427 82 253 0.0 0.0 0.00 0.00 0.00 72 1020.4
20260902081927 82 254 0.0 0.0 0.00 0.00 0.00 72 1020.4
20260902081430 82 218 0.0 0.0 0.00 0.00 0.00 72 1020.4
20260902080927 82 218 0.0 0.0 0.00 0.00 0.00 72 1020.3
20260902080427 82 176 0.0 0.0 0.00 0.00 0.00 72 1020.3
20260902075927 82 176 0.0 0.0 0.00 0.00 0.00 73 1020.3
20260902075427 82 175 0.0 0.0 0.00 0.00 0.00 72 1020.2
20260902074927 82 89 0.0 0.0 0.00 0.00 0.00 74 1020.2
20260902074427 81 85 0.0 0.0 0.00 0.00 0.00 74 1020.2
20260902073933 81 86 0.0 0.0 0.00 0.00 0.00 76 1020.2
20260902073427 80 84 0.0 0.0 0.00 0.00 0.00 76 1020.2
20260902072927 80 95 0.0 0.0 0.00 0.00 0.00 76 1020.2
20260902072427 79 99 0.0 0.0 0.00 0.00 0.00 75 1020.1
20260902071934 79 102 0.0 0.0 0.00 0.00 0.00 75 1020.0
20260902071437 79 120 0.0 0.0 0.00 0.00 0.00 77 1020.0
20260902070927 78 105 0.0 0.0 0.00 0.00 0.00 78 1020.0
20260902070427 78 113 0.0 0.0 0.00 0.00 0.00 78 1020.0
20260902065927 78 95 0.0 0.0 0.00 0.00 0.00 79 1020.0
20260902065427 77 106 0.0 0.0 0.00 0.00 0.00 80 1020.0
20260902064931 77 58 0.0 0.0 0.00 0.00 0.00 80 1020.0
20260902064427 76 123 0.0 0.0 0.00 0.00 0.00 80 1020.0
20260902063928 76 117 0.0 0.0 0.00 0.00 0.00 80 1020.1
20260902063431 76 99 0.0 0.0 0.00 0.00 0.00 79 1020.1
20260902062928 76 104 0.0 0.0 0.00 0.00 0.00 79 1020.1
20260902062428 76 110 0.0 0.0 0.00 0.00 0.00 80 1020.1
20260902061934 76 101 0.0 0.0 0.00 0.00 0.00 80 1020.1
20260902061428 76 116 0.0 0.0 0.00 0.00 0.00 80 1020.1
20260902060934 76 112 0.0 0.0 0.00 0.00 0.00 80 1020.1
20260902060428 76 106 0.0 0.0 0.00 0.00 0.00 80 1020.1
20260902055928 76 112 0.0 0.0 0.00 0.00 0.00 80 1020.0
20260902055431 75 103 0.0 0.0 0.00 0.00 0.00 80 1020.0
20260902054934 75 83 0.0 0.0 0.00 0.00 0.00 80 1020.0
20260902054428 75 110 0.0 0.0 0.00 0.00 0.00 80 1020.0
20260902053931 75 60 0.0 0.0 0.00 0.00 0.00 80 1019.9
20260902053428 75 85 0.0 0.0 0.00 0.00 0.00 80 1019.9
20260902052928 75 114 0.0 0.0 0.00 0.00 0.00 80 1019.8
20260902052431 75 91 0.0 0.0 0.00 0.00 0.00 80 1019.7
20260902051931 75 82 0.0 0.0 0.00 0.00 0.00 80 1019.8
20260902051428 75 91 0.0 0.0 0.00 0.00 0.00 80 1019.7
20260902050928 75 103 0.0 0.0 0.00 0.00 0.00 81 1019.6
20260902050431 75 52 0.0 0.0 0.00 0.00 0.00 81 1019.5
20260902045934 75 85 0.0 0.0 0.00 0.00 0.00 81 1019.6
20260902045431 75 62 0.0 0.0 0.00 0.00 0.00 81 1019.5
20260902044928 75 97 0.0 0.0 0.00 0.00 0.00 81 1019.5
20260902044431 75 95 0.0 0.0 0.00 0.00 0.00 81 1019.5
20260902043928 75 116 0.0 0.0 0.00 0.00 0.00 81 1019.5
20260902043428 75 122 0.0 0.0 0.00 0.00 0.00 81 1019.5
20260902042928 75 89 0.0 0.0 0.00 0.00 0.00 81 1019.5
20260902042428 75 93 0.0 0.0 0.00 0.00 0.00 81 1019.4
20260902041931 75 126 0.0 0.0 0.00 0.00 0.00 81 1019.4
20260902041428 75 48 0.0 0.0 0.00 0.00 0.00 81 1019.4
20260902040928 75 122 0.0 0.0 0.00 0.00 0.00 81 1019.4
20260902040431 75 62 0.0 0.0 0.00 0.00 0.00 82 1019.4
20260902035931 75 75 0.0 0.0 0.00 0.00 0.00 82 1019.3
20260902035431 75 73 0.0 0.0 0.00 0.00 0.00 82 1019.4
20260902034931 75 108 0.0 0.0 0.00 0.00 0.00 82 1019.4
20260902034428 75 109 0.0 0.0 0.00 0.00 0.00 82 1019.4
20260902033931 75 87 0.0 0.0 0.00 0.00 0.00 82 1019.5
20260902033434 75 112 0.0 0.0 0.00 0.00 0.00 82 1019.5
20260902032931 76 93 0.0 0.0 0.00 0.00 0.00 82 1019.5
20260902032428 76 110 0.0 0.0 0.00 0.00 0.00 82 1019.6
20260902031931 76 37 0.0 0.0 0.00 0.00 0.00 82 1019.6
20260902031431 76 107 0.0 0.0 0.00 0.00 0.00 82 1019.6
20260902030931 76 83 0.0 0.0 0.00 0.00 0.00 82 1019.6
20260902030434 76 80 0.0 0.0 0.00 0.00 0.00 82 1019.6
20260902025931 76 107 0.0 0.0 0.00 0.00 0.00 82 1019.6
20260902025428 76 86 0.0 0.0 0.00 0.00 0.00 83 1019.6
20260902024928 76 85 0.0 0.0 0.00 0.00 0.00 83 1019.6
20260902024431 76 56 0.0 0.0 0.00 0.00 0.00 83 1019.7
20260902023928 76 73 0.0 0.0 0.00 0.00 0.00 83 1019.6
20260902023428 76 102 0.0 0.0 0.00 0.00 0.00 83 1019.6
20260902022928 76 97 0.0 0.0 0.00 0.00 0.00 83 1019.6
20260902022431 76 84 0.0 0.0 0.00 0.00 0.00 83 1019.5
20260902021928 76 113 0.0 0.0 0.00 0.00 0.00 83 1019.5
20260902021428 76 82 0.0 0.0 0.00 0.00 0.00 84 1019.4
20260902020928 76 81 0.0 0.0 0.00 0.00 0.00 84 1019.5
20260902020429 76 95 0.0 0.0 0.00 0.00 0.00 84 1019.5
20260902015926 76 100 0.0 0.0 0.00 0.00 0.00 83 1019.5
20260902015429 76 70 0.0 0.0 0.00 0.00 0.00 83 1019.5
20260902014932 76 114 0.0 0.0 0.00 0.00 0.00 83 1019.5
20260902014426 76 98 0.0 0.0 0.00 0.00 0.00 83 1019.6
20260902013926 76 100 0.0 0.0 0.00 0.00 0.00 84 1019.6